User: anonymous
Location: Unspecified
(0.0000°N, 0.0000°E)
Time: 06:22:41
(UTC+02:00)
Language:

Ariane H10 - Orbit

View from above orbital plane
View from above orbital plane
View from above satellite
View from above satellite

Ground track
Ground track

The orbit data is extracted from the following two-line orbital elements,

1 21727U 91067B   14272.66554432  .00000222  00000-0  71912-3 0  3031
2 21727 004.5910 016.9318 7184040 066.3428 300.2057 02.31400936154950
Epoch (UTC): 29 September 2014 15:58:23
Eccentricity: 0.7184040
inclination: 4.5910°
perigee height: 421 km
apogee height: 35112 km
right ascension of ascending node: 16.9318°
argument of perigee: 66.3428°
revolutions per day: 2.31400936
mean anomaly at epoch: 300.2057°
orbit number at epoch: 15495

The dashed part of the orbit path shows where the satellite is in the earth's shadow,  

DLR